HST
1 20580U 90037B   25013.17438382  .00008318  00000-0  34138-3 0  9993
2 20580  28.4699  13.5510 0002689 175.2905 184.7714 15.22383138709277
ISS (ZARYA)
1 25544U 98067A   25013.18638580  .00013690  00000-0  24777-3 0  9999
2 25544  51.6382 354.8342 0002206  85.1369 274.9872 15.49960996491122
CXO
1 25867U 99040B   25010.77007610  .00000454  00000-0  00000-0 0  9999
2 25867  45.9725 138.0735 8652246 306.0969   0.2177  0.37805379 15347